Location: Manning Provincial Park
(49.0805°N, 120.7632°W)
Time: 08:58:29
(UTC-07:00)

Envisat - Visible Passes

Search period start: 23 September 2018 00:00
Search period end: 03 October 2018 00:00
Orbit: 764 x 766 km, 98.2° (Epoch: 22 September)

Date Brightness Start Highest point End Pass type
(mag) Time Alt. Az. Time Alt. Az. Time Alt. Az.
23 Sep 3.0 19:40:02 10° SSE 19:45:04 70° ENE 19:50:09 10° N visible
23 Sep 5.6 21:21:10 10° SW 21:24:37 18° W 21:28:05 10° NW visible
24 Sep 4.5 20:42:52 10° SSW 20:47:31 36° W 20:52:13 10° NNW visible
25 Sep 3.2 20:05:34 10° S 20:10:38 73° WSW 20:15:44 10° NNW visible
25 Sep 6.1 21:49:31 10° W 21:50:34 11° W 21:51:36 10° WNW visible
26 Sep 3.1 19:28:58 10° SSE 19:33:56 57° ENE 19:38:55 10° N visible
26 Sep 5.3 21:09:23 10° SW 21:13:19 22° W 21:17:16 10° NW visible
27 Sep 4.1 20:31:26 10° S 20:36:17 44° W 20:41:09 10° NNW visible
28 Sep 3.0 19:54:22 10° SSE 19:59:26 89° WSW 20:04:34 10° NNW visible
28 Sep 5.8 21:36:46 10° WSW 21:39:12 13° W 21:41:40 10° WNW visible
29 Sep 3.3 19:17:57 10° SE 19:22:48 46° ENE 19:27:39 10° N visible
29 Sep 5.0 20:57:44 10° SSW 21:02:01 27° W 21:06:20 10° NW visible
30 Sep 3.7 20:20:05 10° S 20:25:03 55° W 20:30:03 10° NNW visible
01 Oct 2.9 19:43:12 10° SSE 19:48:16 75° ENE 19:53:22 10° N visible
01 Oct 5.7 21:24:40 10° SW 21:27:52 17° W 21:31:06 10° NW visible
02 Oct 3.5 19:07:01 10° SE 19:11:41 38° ENE 19:16:22 10° N visible
02 Oct 4.6 20:46:12 10° SSW 20:50:45 33° W 20:55:21 10° NNW visible
